Location: Innsbruck
(47.2657°N, 11.3914°E)
Time: 00:51:51
(UTC+01:00)

BEESAT 2 - Pass Details

Date: 30 November 2021
Orbit: 498 x 513 km, 64.9° (Epoch: 25 January)

Event Time Altitude Azimuth Distance (km) Brightness Sun altitude
Exits shadow 06:28:15 - 338° (NNW) 1,994 ? -11.7°
Reaches altitude 10° 06:28:58 10° 344° (NNW) 1,754 ? -11.6°
Maximum altitude 06:32:11 24° 39° (NE) 1,117 ? -11.0°
Drops below altitude 10° 06:35:23 10° 94° (E) 1,744 ? -10.5°
Sets 06:37:52 0° 109° (ESE) 2,625 ? -10.1°
